Date,TemperatureHighF,TemperatureAvgF,TemperatureLowF,DewpointHighF,DewpointAvgF,DewpointLowF,HumidityHigh,HumidityAvg,HumidityLow,PressureMaxIn,PressureMinIn,WindSpeedMaxMPH,WindSpeedAvgMPH,GustSpeedMaxMPH,PrecipitationSumIn
2013-1-1,32.0,22.2,8.0,25.4,12.3,1.0,93,67,40,29.25,29.13,32,8,32,0.00
2013-1-2,15.0,6.9,-3.0,4.3,-1.6,-5.5,100,69,46,29.32,29.13,31,8,32,0.01
2013-1-3,20.0,7.6,0.0,7.7,0.6,-5.0,98,74,45,29.50,29.27,15,4,17,0.00
2013-1-4,32.0,18.2,-1.0,25.6,14.4,-2.0,100,86,73,29.33,29.15,15,2,15,0.00
2013-1-5,32.0,24.2,7.0,26.3,13.4,0.3,100,66,35,29.73,29.24,34,6,34,0.00
2013-1-6,29.0,15.5,4.0,25.1,14.9,4.0,100,98,85,29.65,29.39,10,2,10,0.02
2013-1-7,20.0,11.7,-2.0,20.0,8.3,-2.0,100,88,56,29.88,29.50,20,4,20,0.00
2013-1-8,42.0,26.1,1.0,30.1,19.5,1.0,100,79,47,29.88,29.56,20,3,20,0.06
2013-1-9,42.0,28.8,11.0,37.4,25.5,11.0,100,89,52,30.00,29.44,15,2,15,0.02
2013-1-10,42.0,36.5,24.0,32.2,24.9,17.2,87,64,44,30.04,29.43,40,9,41,0.14
2013-1-11,37.0,29.5,21.0,22.6,18.3,13.3,86,64,39,30.11,29.88,16,3,17,0.00
2013-1-12,42.0,36.1,31.0,37.7,29.7,19.9,96,78,63,29.88,29.74,13,2,13,0.00
2013-1-13,45.0,40.7,36.0,45.0,40.6,36.0,100,100,95,29.81,29.60,15,3,15,0.02
2013-1-14,57.0,45.3,37.0,56.4,40.3,22.7,100,84,48,29.82,29.52,23,5,23,0.01
2013-1-15,37.0,30.9,22.0,29.3,21.0,16.4,99,68,48,29.93,29.76,15,3,16,0.00
2013-1-16,35.0,29.7,25.0,34.0,27.4,18.5,100,91,73,29.84,29.37,12,2,12,0.01
2013-1-17,41.0,28.7,10.0,36.0,18.7,-11.0,100,70,29,29.62,29.31,26,6,30,0.29
2013-1-18,12.0,7.2,1.0,4.8,-5.4,-12.9,99,57,34,29.79,29.51,26,6,28,0.00
2013-1-19,33.0,23.4,4.0,28.5,20.8,3.8,100,90,73,29.76,29.49,16,1,16,0.00
2013-1-20,49.0,36.5,22.0,40.4,26.7,2.0,100,71,34,29.48,29.11,35,6,35,0.10
2013-1-21,22.0,16.0,11.0,13.6,-1.2,-8.0,94,47,27,29.54,29.29,31,6,35,0.00
2013-1-22,15.0,8.3,-1.0,13.6,-0.7,-9.4,100,67,46,29.35,29.18,20,6,21,0.00
2013-1-23,6.0,0.5,-5.0,-7.8,-13.1,-18.5,67,52,34,29.38,29.20,31,8,31,0.00
2013-1-24,9.0,1.0,-6.0,-6.4,-11.3,-15.2,75,57,36,29.35,29.15,29,8,32,0.00
2013-1-25,19.0,9.0,0.0,1.8,-2.4,-8.0,81,60,39,29.59,29.29,27,7,28,0.00
2013-1-26,17.0,10.3,5.0,0.1,-2.8,-7.7,76,56,34,29.48,29.35,23,7,23,0.00
2013-1-27,22.0,13.3,6.0,5.9,1.4,-2.9,74,59,45,29.79,29.44,28,9,32,0.00
2013-1-28,26.0,18.1,9.0,17.9,1.5,-11.5,85,52,19,29.86,29.55,16,3,19,0.00
2013-1-29,36.0,25.1,11.0,22.0,16.5,10.4,100,72,44,29.80,29.49,12,2,12,0.00
2013-1-30,52.0,42.0,31.0,52.0,41.1,22.7,100,97,71,29.75,29.17,26,9,240,0.31
2013-1-31,53.0,45.5,32.0,53.0,40.1,11.5,100,83,42,29.17,28.52,40,11,225,0.44
2013-2-1,32.0,22.4,11.0,11.5,4.2,0.6,69,46,33,29.40,28.93,40,8,239,0.01
2013-2-2,25.0,16.3,7.0,15.1,4.5,-3.0,85,61,32,29.67,29.38,17,3,17,0.00
2013-2-3,30.0,22.1,18.0,20.0,18.0,15.1,100,85,63,29.57,29.13,20,5,21,0.03
2013-2-4,26.0,19.3,13.0,15.8,6.4,-11.7,93,60,29,29.24,29.01,36,9,36,0.23
2013-2-5,22.0,11.5,2.0,7.2,-3.1,-9.8,96,55,26,29.56,29.20,23,4,24,0.00
2013-2-6,36.0,20.0,7.0,27.5,9.8,-3.6,96,67,34,29.67,29.35,22,5,23,0.02
2013-2-7,15.0,7.1,1.0,-2.1,-9.6,-17.5,70,47,27,29.98,29.64,25,6,25,0.00
2013-2-8,18.0,9.4,0.0,14.3,3.6,-10.3,100,78,54,29.95,29.38,28,6,28,0.00
2013-2-9,16.0,12.2,9.0,15.0,12.2,9.0,100,100,96,29.48,29.06,38,14,39,0.58
2013-2-10,33.0,19.8,9.0,14.5,8.0,3.2,100,65,29,29.86,29.46,29,6,32,0.00
2013-2-11,40.0,21.2,1.0,40.0,19.9,1.0,100,96,60,29.71,29.15,24,3,24,0.39
2013-2-12,43.0,37.4,33.0,37.0,32.0,27.8,100,82,61,29.31,29.06,25,5,25,0.02
2013-2-13,43.0,33.8,25.0,31.1,26.2,21.4,100,76,46,29.42,29.22,17,3,17,0.00
2013-2-14,40.0,30.4,19.0,24.6,19.8,13.9,99,68,36,29.54,29.26,19,4,19,0.00
2013-2-15,42.0,32.3,17.0,37.3,29.7,17.0,100,91,65,29.62,29.47,25,5,26,0.00
2013-2-16,35.0,31.2,25.0,35.0,30.3,24.8,100,96,81,29.54,29.28,21,4,22,0.00
2013-2-17,25.0,20.7,18.0,25.0,19.0,9.9,100,94,70,29.28,28.47,43,11,47,0.51
2013-2-18,29.0,20.8,15.0,10.5,4.2,1.6,72,49,36,29.39,28.72,41,12,46,0.32
2013-2-19,47.0,30.8,18.0,39.5,13.1,-0.8,98,51,20,29.72,29.33,19,5,19,0.06
2013-2-20,44.0,37.1,29.0,44.0,29.3,16.5,100,75,51,29.35,28.99,28,9,28,0.96
2013-2-21,35.0,27.9,23.0,29.8,19.4,11.6,93,71,58,29.66,29.08,29,9,29,0.00
2013-2-22,40.0,30.4,21.0,25.0,20.3,16.6,97,67,41,29.98,29.65,26,6,26,0.00
2013-2-23,33.0,27.1,19.0,26.6,23.9,19.0,100,88,76,29.88,29.63,16,4,16,0.00
2013-2-24,32.0,28.2,26.0,30.0,27.0,23.6,100,95,81,29.63,29.32,15,4,16,0.02
2013-2-25,42.0,27.0,17.0,23.7,14.5,-3.4,96,66,16,29.79,29.41,17,4,18,0.08
2013-2-26,47.0,29.3,16.0,26.9,21.4,15.5,100,76,36,30.01,29.69,17,3,17,0.00
2013-2-27,41.0,30.8,20.0,32.0,25.6,20.0,100,84,54,29.79,29.33,26,6,29,0.00
2013-2-28,40.0,35.3,31.0,39.7,35.2,31.0,100,100,99,29.33,29.07,25,7,29,0.67
2013-3-1,34.0,31.4,30.0,33.5,31.3,29.5,100,100,96,29.18,29.06,22,6,22,0.08
2013-3-2,39.0,34.0,31.0,35.6,32.6,28.9,100,95,82,29.19,29.11,20,6,22,0.21
2013-3-3,45.0,36.8,33.0,36.8,34.4,32.2,100,92,65,29.18,29.04,15,3,17,0.03
2013-3-4,37.0,33.3,31.0,35.5,32.3,29.5,100,96,89,29.22,28.98,21,6,21,0.26
2013-3-5,44.0,36.5,33.0,36.3,34.2,32.6,100,92,71,29.73,29.22,23,7,23,0.07
2013-3-6,40.0,34.7,32.0,34.0,27.1,22.6,96,75,57,29.89,29.72,23,7,23,0.00
2013-3-7,39.0,33.6,31.0,25.9,23.9,21.4,79,68,53,29.82,29.67,25,8,28,0.00
2013-3-8,47.0,36.3,30.0,25.0,22.2,17.6,78,59,34,29.78,29.61,34,10,34,0.00
2013-3-9,44.0,32.8,26.0,24.9,23.1,21.4,91,69,44,29.95,29.70,25,6,28,0.00
2013-3-10,41.0,31.7,27.0,29.6,25.0,22.7,91,77,51,30.05,29.87,10,4,15,0.00
2013-3-11,42.0,38.1,33.0,39.5,34.8,29.6,98,88,77,29.92,29.79,23,7,23,0.00
2013-3-12,51.0,45.0,40.0,47.7,42.3,39.0,99,91,76,29.84,29.56,25,8,25,0.33
2013-3-13,47.0,41.7,31.0,47.0,39.2,28.9,100,91,78,29.37,29.21,17,4,17,1.10
2013-3-14,44.0,33.4,24.0,35.5,24.2,15.3,100,72,36,29.33,29.15,26,4,26,0.00
2013-3-15,34.0,24.5,18.0,17.8,10.6,3.4,89,59,28,29.27,29.05,25,6,26,0.00
2013-3-16,34.0,27.6,20.0,19.1,11.7,3.3,86,53,29,29.40,29.09,22,5,22,0.00
2013-3-17,29.0,21.6,13.0,15.0,2.4,-9.4,92,46,21,29.71,29.30,35,7,35,0.00
2013-3-18,34.0,21.6,12.0,13.9,-0.8,-6.6,67,39,19,29.93,29.69,25,5,25,0.00
2013-3-19,26.0,23.9,22.0,25.0,17.5,2.1,100,80,38,29.81,29.16,24,5,24,0.00
2013-3-20,35.0,25.6,18.0,30.5,21.1,15.6,100,84,64,29.23,28.99,31,6,34,0.09
2013-3-21,40.0,30.7,17.0,27.7,21.5,13.4,100,72,39,29.39,29.11,20,4,20,0.19
2013-3-22,41.0,30.9,22.0,24.6,17.6,10.0,97,61,30,29.19,29.02,22,6,23,0.00
2013-3-23,40.0,32.6,25.0,25.7,19.7,15.0,74,60,41,29.14,29.00,30,7,33,0.00
2013-3-24,44.0,34.0,32.0,25.6,24.4,22.0,73,68,43,29.37,29.09,20,6,22,0.00
2013-3-25,44.0,37.3,29.0,29.5,26.1,24.2,100,65,49,29.38,29.21,8,6,8,0.00
2013-3-26,45.0,33.4,28.0,24.4,23.5,22.7,82,69,44,29.23,29.06,12,7,12,0.00
2013-3-27,40.0,37.4,36.0,38.1,36.1,34.2,98,95,91,29.46,29.36,15,5,15,0.27
2013-3-28,52.0,39.4,30.0,36.4,31.6,26.5,97,76,43,29.60,29.42,13,3,13,0.01
2013-3-29,54.0,43.4,29.0,38.2,31.9,26.2,100,67,39,29.66,29.46,20,4,20,0.01
2013-3-30,54.0,40.4,25.0,34.3,22.5,8.1,100,57,17,29.73,29.49,23,3,23,0.00
2013-3-31,52.0,37.8,20.0,37.1,21.9,11.7,100,61,22,29.87,29.53,20,4,20,0.00
2013-4-1,47.0,40.5,34.0,43.7,38.2,28.2,100,91,77,29.54,29.13,27,6,27,0.59
2013-4-2,37.0,31.0,26.0,28.5,11.9,2.7,80,47,27,29.37,29.19,38,7,38,0.08
2013-4-3,39.0,30.5,26.0,18.2,12.0,7.2,69,47,32,29.42,29.25,31,8,33,0.04
2013-4-4,52.0,41.2,32.0,32.6,14.6,-0.5,85,39,15,30.16,29.74,27,8,27,0.00
2013-4-5,48.0,41.4,35.0,35.6,31.7,21.8,90,69,40,29.93,29.67,23,7,23,0.00
2013-4-6,38.0,31.6,24.0,21.8,8.5,-5.1,67,40,16,30.21,29.70,35,10,35,0.06
2013-4-7,42.0,33.7,20.0,38.4,24.2,7.1,87,69,41,30.32,29.97,31,7,31,0.01
2013-4-8,57.0,47.1,34.0,41.3,35.7,29.9,96,67,41,30.16,29.86,22,6,22,0.00
2013-4-9,42.0,36.1,32.0,41.5,34.9,30.7,99,95,91,30.10,29.93,12,3,13,0.35
2013-4-10,54.0,46.8,40.0,45.0,43.0,39.7,100,87,64,30.04,29.89,16,4,16,0.03
2013-4-11,50.0,42.1,34.0,42.0,19.3,8.5,100,45,21,30.14,29.84,23,7,23,0.00
2013-4-12,40.0,34.1,28.0,32.0,18.4,11.6,100,53,38,30.21,30.00,15,5,15,0.09
2013-4-13,43.0,40.2,37.0,36.6,35.3,34.0,95,83,75,29.90,29.77,17,3,17,0.37
2013-4-14,52.0,40.1,35.0,42.8,38.2,34.0,100,93,66,30.10,29.85,16,2,16,0.22
2013-4-15,56.0,40.8,32.0,38.9,35.7,31.8,100,84,47,30.48,30.08,15,4,15,0.22
2013-4-16,47.0,42.2,39.0,46.2,39.6,36.6,98,91,77,30.41,29.97,29,9,29,0.12
2013-4-17,60.0,50.2,36.0,48.2,29.9,21.3,98,49,25,30.36,29.97,29,7,29,0.01
2013-4-18,48.0,40.4,27.0,37.2,25.2,14.7,87,58,27,30.54,30.20,23,6,23,2.56
2013-4-19,52.0,48.0,44.0,52.0,46.8,36.6,100,96,74,30.20,29.76,34,10,34,0.02
2013-4-20,58.0,50.2,43.0,54.0,44.7,25.6,100,84,36,30.12,29.67,23,7,25,0.45
2013-4-21,51.0,40.5,28.0,26.1,20.0,8.1,82,47,19,30.62,30.10,24,6,24,0.00
2013-4-22,50.0,37.5,24.0,31.2,24.2,13.8,99,64,29,30.90,30.57,18,4,18,0.00
2013-4-23,45.0,37.5,27.0,41.7,34.4,26.5,100,89,67,30.62,30.22,16,4,16,0.05
2013-4-24,56.0,47.5,42.0,55.4,47.1,41.5,100,98,92,30.23,29.84,17,5,20,0.62
2013-4-25,63.0,51.9,43.0,52.4,39.1,25.7,100,68,26,30.30,29.85,22,7,22,0.05
2013-4-26,61.0,45.9,32.0,36.6,31.0,21.3,95,61,24,30.57,30.24,17,5,17,0.00
2013-4-27,63.0,45.9,30.0,42.7,30.7,20.7,100,63,21,30.55,30.30,17,4,17,0.00
2013-4-28,63.0,47.8,31.0,43.9,36.4,30.8,100,69,33,30.52,30.25,17,4,17,0.00
2013-4-29,64.0,48.5,32.0,48.9,35.6,19.2,100,68,20,30.49,30.21,19,4,19,0.00
2013-4-30,65.0,49.9,33.0,48.9,34.5,25.9,100,63,27,30.55,30.25,17,5,17,0.00
2013-5-1,66.0,50.6,33.0,45.9,32.7,19.6,100,59,20,30.67,30.35,20,4,20,0.00
2013-5-2,68.0,49.5,37.0,44.1,37.2,19.0,98,68,18,30.67,30.40,21,3,21,0.00
2013-5-3,70.0,50.3,37.0,43.3,38.7,34.8,96,68,30,30.66,30.43,19,4,19,0.00
2013-5-4,63.0,46.9,34.0,38.3,34.5,26.6,99,66,26,30.53,30.34,17,5,17,0.00
2013-5-5,59.0,46.5,31.0,46.1,36.9,30.8,100,73,41,30.48,30.26,25,5,25,0.00
2013-5-6,60.0,47.7,35.0,45.0,41.5,35.0,100,81,54,30.43,30.22,23,6,23,0.00
2013-5-7,64.0,51.4,42.0,51.7,47.1,42.0,100,87,60,30.32,30.17,22,7,22,0.00
2013-5-8,68.0,57.2,48.0,59.2,53.5,48.0,100,89,67,30.47,30.24,21,6,21,0.00
2013-5-9,59.0,53.7,51.0,58.1,53.4,50.7,100,99,95,30.28,30.03,15,4,16,0.74
2013-5-10,74.0,56.3,49.0,59.3,53.6,49.0,100,92,58,30.16,29.99,16,4,20,0.00
2013-5-11,57.0,51.7,47.0,57.0,51.7,47.0,100,100,98,30.08,29.84,20,7,20,0.18
2013-5-12,57.0,53.4,48.0,57.0,53.3,45.6,100,100,94,29.85,29.65,20,5,20,0.46
2013-5-13,57.0,48.2,40.0,45.9,37.4,30.4,100,69,42,30.05,29.74,28,5,28,0.02
2013-5-14,62.0,48.5,39.0,39.7,31.6,26.4,91,54,28,30.12,29.94,17,4,17,0.00
2013-5-15,63.0,48.1,31.0,48.5,34.5,22.2,100,67,24,30.13,29.78,27,6,28,0.29
2013-5-16,67.0,57.5,48.0,53.8,46.8,40.0,100,71,43,29.89,29.68,16,7,16,0.05
2013-5-17,60.0,52.2,40.0,44.4,38.2,33.4,89,61,39,30.24,29.95,21,6,21,0.00
2013-5-18,65.0,49.9,36.0,42.2,38.2,31.6,100,68,32,30.49,30.19,19,5,19,0.00
2013-5-19,61.0,49.0,35.0,48.3,41.0,35.0,100,77,44,30.56,30.32,17,5,17,0.00
2013-5-20,61.0,52.7,48.0,57.7,51.8,47.9,100,97,85,30.35,30.06,18,5,19,0.89
2013-5-21,52.0,49.4,48.0,50.9,48.8,47.2,100,98,95,30.18,30.07,9,3,9,0.08
2013-5-22,51.0,48.8,48.0,50.5,48.7,48.0,100,100,97,30.14,30.04,10,7,10,0.40
2013-5-23,60.0,56.6,48.0,59.0,56.0,48.0,100,98,86,30.08,29.97,16,7,16,0.02
2013-5-24,62.0,57.3,55.0,62.0,57.3,55.0,100,100,100,29.99,29.85,20,8,20,1.49
2013-5-25,50.0,50.0,50.0,50.0,50.0,50.0,100,100,100,29.87,29.87,6,6,6,0.36
2013-5-27,58.0,55.5,53.0,38.6,34.7,32.6,58,46,39,30.14,30.12,14,9,14,0.66
2013-5-28,70.0,67.7,66.0,40.0,36.3,30.6,37,32,24,30.45,30.40,17,9,17,0.00
2013-5-29,54.0,52.8,51.0,54.0,52.8,51.0,100,100,100,30.31,30.12,13,6,13,0.46
2013-5-30,83.0,62.0,51.0,63.8,55.3,51.0,100,83,44,30.28,30.06,13,4,13,0.00
2013-5-31,86.0,79.8,62.0,64.0,61.2,57.9,100,54,44,30.33,30.15,22,8,22,0.00
2013-6-1,84.0,76.7,63.0,63.4,61.3,58.1,89,60,48,30.25,30.05,17,9,17,0.00
2013-6-2,77.0,67.5,61.0,64.2,60.5,57.7,95,79,63,30.12,29.96,25,8,25,0.01
2013-6-3,67.0,62.4,58.0,63.9,60.0,57.4,100,92,82,30.03,29.93,17,8,17,0.02
2013-6-6,71.0,63.0,55.0,54.3,44.2,33.3,94,55,27,30.50,30.35,14,5,14,0.00
2013-6-7,63.0,56.1,52.0,54.4,48.5,33.1,100,79,39,30.40,30.19,15,4,15,0.30
2013-6-8,62.0,56.8,52.0,59.8,55.2,52.0,100,95,79,30.20,29.85,20,5,22,1.86
2013-6-9,64.0,57.2,51.0,56.0,52.8,47.7,100,86,65,30.37,30.16,19,4,19,0.00
2013-6-10,75.0,59.7,49.0,59.0,51.7,45.6,100,78,38,30.50,30.25,16,4,16,0.00
2013-6-11,56.0,54.7,53.0,55.4,54.0,51.8,100,98,89,30.26,29.70,22,5,22,0.67
2013-6-12,59.0,55.0,52.0,57.4,54.6,52.0,100,99,93,29.88,29.64,23,6,23,1.05
2013-6-13,76.0,59.6,52.0,53.7,51.2,47.9,100,76,41,30.06,29.87,17,5,18,0.24
2013-6-14,67.0,57.8,51.0,56.7,51.5,47.8,100,81,60,29.95,29.84,13,3,13,0.01
2013-6-15,76.0,61.7,45.0,52.7,43.5,35.3,100,59,25,30.10,29.84,22,4,22,0.00
2013-6-16,76.0,61.5,49.0,55.7,49.8,44.4,98,70,36,30.21,29.93,19,4,19,0.01
2013-6-17,79.0,63.6,56.0,63.5,57.1,49.9,100,82,38,30.08,29.88,25,5,25,0.06
2013-6-18,73.0,62.6,54.0,57.7,50.2,41.8,100,68,39,30.22,30.00,19,3,19,0.00
2013-6-19,75.0,62.8,51.0,54.4,44.8,33.3,91,57,24,30.30,30.10,22,4,22,0.00
2013-6-20,77.0,61.6,46.0,57.0,48.2,38.8,100,67,30,30.55,30.25,20,5,20,0.00
2013-6-21,80.0,64.1,53.0,59.6,53.8,42.2,100,73,29,30.52,30.35,22,4,22,0.00
2013-6-22,80.0,65.3,55.0,62.4,57.5,52.7,98,78,45,30.51,30.33,13,2,14,0.00
2013-6-23,75.0,62.9,53.0,65.6,60.3,53.0,100,92,70,30.40,30.17,19,4,19,0.07
2013-6-24,87.0,73.4,61.0,70.6,65.7,60.1,100,79,49,30.20,30.05,20,4,20,0.04
2013-6-25,85.0,73.5,62.0,69.8,64.8,57.9,100,77,45,30.18,29.97,20,4,20,0.12
2013-6-26,73.0,65.8,59.0,71.1,65.0,58.4,100,97,88,30.12,29.96,13,3,14,0.07
2013-6-27,61.0,57.3,54.0,58.4,56.0,53.7,100,95,85,30.15,30.06,14,4,14,0.02
2013-6-28,63.0,59.4,57.0,63.0,59.4,56.0,100,100,99,30.09,29.83,22,6,22,1.94
2013-6-29,67.0,62.3,60.0,65.7,62.2,60.0,100,100,96,29.95,29.82,20,6,20,0.05
2013-6-30,70.0,63.5,61.0,67.2,63.0,50.9,100,98,90,30.17,29.93,16,6,16,2.56
2013-7-1,78.0,66.9,62.0,71.1,65.2,61.0,100,95,74,30.39,30.16,16,4,16,0.04
2013-7-2,67.0,60.7,57.0,67.0,59.9,55.4,100,97,85,30.46,30.37,16,3,16,0.33
2013-7-3,74.0,64.3,57.0,64.6,60.8,56.7,100,89,68,30.49,30.34,17,4,17,0.00
2013-7-4,90.0,74.6,61.0,70.2,65.2,60.0,100,76,42,30.49,30.31,17,4,17,0.00
2013-7-5,91.0,77.6,65.0,73.2,67.6,62.7,100,75,43,30.44,30.29,20,5,21,0.00
2013-7-6,87.0,77.5,67.0,72.8,68.0,62.8,100,75,51,30.37,30.21,18,4,20,0.00
2013-7-7,90.0,77.8,64.0,67.2,63.1,56.5,98,64,38,30.31,30.16,20,4,20,0.00
2013-7-8,80.0,69.4,58.0,67.6,61.2,46.4,97,76,46,30.39,30.20,15,3,16,0.20
2013-7-9,68.0,63.6,60.0,64.9,61.7,58.1,100,94,83,30.46,30.33,12,3,12,0.01
2013-7-10,69.0,62.9,59.0,63.0,61.2,56.0,100,94,80,30.37,30.06,15,5,15,0.04
2013-7-11,77.0,69.0,63.0,71.8,67.3,63.0,100,95,76,30.24,30.03,18,3,19,0.31
2013-7-12,84.0,69.9,60.0,66.8,57.4,52.2,99,67,36,30.52,30.24,16,5,16,0.00
2013-7-13,85.0,70.1,56.0,66.0,57.1,50.0,100,69,32,30.69,30.45,18,4,18,0.00
2013-7-14,89.0,73.1,59.0,66.0,62.2,58.1,100,72,38,30.63,30.44,16,4,16,0.00
2013-7-15,92.0,78.0,61.0,69.2,63.6,54.3,100,67,31,30.52,30.36,17,3,17,0.00
2013-7-16,94.0,77.6,68.0,68.5,63.1,55.8,96,64,33,30.52,30.32,19,4,19,0.00
2013-7-17,76.0,69.8,65.0,68.1,60.9,54.7,99,74,63,30.53,30.20,22,6,22,0.19
2013-7-18,90.0,74.7,67.0,70.2,63.5,51.6,100,73,33,30.39,30.19,20,4,20,0.07
2013-7-19,83.0,72.4,67.0,71.7,68.4,65.8,100,88,66,30.24,29.92,19,7,19,0.06
2013-7-20,90.0,76.7,68.0,70.9,67.1,59.8,97,74,46,30.05,29.89,35,5,36,0.10
2013-7-21,79.0,68.1,59.0,60.6,55.4,49.4,89,65,41,30.33,30.05,17,5,17,0.00
2013-7-22,78.0,65.4,55.0,62.0,55.9,50.3,100,74,48,30.40,30.20,14,3,14,0.00
2013-7-23,68.0,63.7,59.0,67.0,63.5,57.6,100,99,91,30.20,29.81,14,2,14,1.30
2013-7-24,78.0,68.8,60.0,70.9,64.7,51.5,100,87,65,30.22,29.82,20,5,20,0.09
2013-7-25,77.0,64.7,56.0,61.2,53.6,49.1,95,69,45,30.47,30.20,18,5,22,0.01
2013-7-26,68.0,64.7,62.0,68.0,64.5,60.5,100,99,94,30.37,30.11,14,5,17,2.02
2013-7-27,80.0,67.1,58.0,63.6,61.4,56.0,100,84,53,30.38,30.09,19,6,19,0.03
2013-7-28,74.0,65.2,56.0,67.7,62.9,56.0,100,93,71,30.39,30.27,16,3,16,0.04
2013-7-29,74.0,66.5,63.0,66.2,64.2,62.3,100,93,73,30.40,30.26,12,4,12,0.01
2013-7-30,80.0,69.1,60.0,67.1,61.4,53.6,100,80,44,30.36,30.27,17,3,17,0.00
2013-7-31,82.0,67.6,55.0,67.0,56.6,50.1,100,72,37,30.42,30.24,17,4,17,0.00
2013-8-1,79.0,66.1,56.0,65.6,59.6,54.8,100,82,46,30.37,30.16,18,4,18,0.00
2013-8-2,67.0,63.9,61.0,65.8,63.7,60.1,100,99,95,30.16,30.04,11,4,11,0.38
2013-8-3,77.0,64.8,59.0,65.9,61.3,56.3,100,90,53,30.08,29.97,17,3,17,0.32
2013-8-4,80.0,65.8,55.0,71.0,58.0,48.7,100,79,37,30.10,29.94,15,3,15,0.01
2013-8-5,71.0,63.1,54.0,56.1,52.4,48.9,89,70,50,30.21,30.00,22,6,22,0.00
2013-8-6,78.0,63.8,46.0,58.7,51.3,45.7,100,68,38,30.46,30.17,17,3,17,0.00
2013-8-7,77.0,63.4,51.0,60.6,53.2,44.9,100,74,38,30.55,30.35,13,4,17,0.00
2013-8-8,64.0,61.6,57.0,64.0,61.0,56.4,100,98,92,30.40,30.31,16,5,16,0.13
2013-8-9,65.0,63.8,62.0,65.0,63.8,62.0,100,100,100,30.33,30.24,13,5,13,0.61
2013-8-12,77.0,72.9,70.0,57.7,56.0,53.9,64,56,46,30.29,30.22,12,7,12,2.15
2013-8-13,71.0,65.0,60.0,65.2,62.8,59.6,100,93,70,30.22,29.97,12,5,12,0.00
2013-8-14,72.0,63.1,57.0,65.9,59.6,48.0,100,90,63,30.04,29.88,15,4,15,0.10
2013-8-15,77.0,68.0,52.0,55.3,50.0,46.7,97,55,38,30.31,30.04,17,7,17,0.00
2013-8-16,77.0,65.5,51.0,64.0,53.9,47.0,100,71,36,30.49,30.25,16,4,16,0.00
2013-8-17,80.0,65.5,51.0,61.9,54.4,48.3,100,72,36,30.61,30.40,16,3,16,0.00
2013-8-18,78.0,62.6,48.0,64.0,54.8,45.1,100,81,34,30.59,30.28,13,2,13,0.00
2013-8-19,83.0,69.1,55.0,65.9,59.8,54.7,100,76,45,30.29,30.16,16,3,16,0.00
2013-8-20,85.0,70.0,60.0,68.4,62.0,59.4,100,78,46,30.40,30.18,18,3,18,0.00
2013-8-21,82.0,69.5,55.0,67.0,61.8,55.0,100,79,52,30.49,30.26,17,4,17,0.00
2013-8-22,81.0,70.0,57.0,66.7,63.4,56.0,100,82,54,30.28,30.03,17,5,17,0.00
2013-8-23,76.0,66.4,53.0,67.0,56.4,46.5,100,73,38,30.35,30.02,22,5,23,0.01
2013-8-24,78.0,62.1,46.0,54.3,47.6,39.6,100,67,28,30.61,30.33,20,4,20,0.00
2013-8-25,79.0,62.2,44.0,61.7,51.5,44.0,100,73,32,30.66,30.37,17,4,17,0.00
2013-8-26,71.0,62.4,50.0,63.3,59.9,50.0,100,92,75,30.38,30.12,13,4,13,0.04
2013-8-27,87.0,69.9,56.0,66.8,62.5,56.0,100,80,42,30.26,30.08,14,3,15,0.00
2013-8-28,81.0,67.1,58.0,66.8,62.9,56.0,100,88,54,30.30,30.15,13,3,13,0.05
2013-8-29,64.0,59.9,51.0,63.0,57.2,48.0,100,91,74,30.40,30.22,18,4,18,0.11
2013-8-30,75.0,60.5,49.0,61.6,56.2,45.0,100,87,56,30.22,30.04,16,4,16,0.02
2013-8-31,82.0,67.0,60.0,67.4,63.8,60.0,100,91,59,30.21,30.03,15,3,15,0.38
2013-9-1,84.0,69.3,61.0,73.0,65.9,59.0,100,90,55,30.26,30.04,16,3,16,0.13
2013-9-2,66.0,62.7,58.0,66.0,62.7,56.0,100,100,99,30.26,30.00,19,4,19,2.79
2013-9-3,73.0,65.8,62.0,71.0,65.3,62.0,100,98,86,30.08,29.96,17,4,17,0.11
2013-9-4,79.0,67.8,60.0,65.0,58.6,51.8,100,76,42,30.15,29.98,17,3,17,0.00
2013-9-5,67.0,57.5,44.0,58.7,49.2,34.4,100,78,32,30.27,30.10,17,3,17,0.60
2013-9-6,68.0,54.3,40.0,54.7,42.2,33.5,100,70,34,30.47,30.22,17,3,18,0.00
2013-9-7,71.0,59.5,49.0,58.7,53.2,46.1,100,82,42,30.25,30.00,17,4,17,0.01
2013-9-8,64.0,57.0,43.0,59.7,51.5,39.1,100,84,47,30.15,29.90,28,4,28,0.41
2013-9-9,67.0,53.0,39.0,53.3,43.6,36.2,100,74,37,30.42,30.15,20,4,20,0.41
2013-9-10,67.0,60.3,55.0,60.7,57.3,53.0,100,90,72,30.38,30.29,17,5,17,0.00
2013-9-11,73.0,64.6,59.0,67.9,63.3,59.0,100,96,81,30.30,30.17,15,5,15,0.00
2013-9-12,76.0,66.4,63.0,69.4,65.6,63.0,100,98,79,30.29,29.92,26,6,26,0.13
2013-9-13,66.0,63.5,59.0,65.0,63.5,59.0,100,100,100,29.93,29.84,22,3,22,1.10
2013-9-14,72.0,61.7,54.0,61.0,56.8,52.4,100,85,58,30.22,29.89,15,4,22,0.00
2013-9-15,69.0,56.3,47.0,57.0,49.5,44.9,100,81,47,30.38,30.18,19,3,19,0.00
2013-9-16,62.0,52.9,40.0,56.3,49.0,31.7,100,87,65,30.36,30.15,23,4,23,0.00
2013-9-17,66.0,49.5,35.0,48.9,39.7,33.0,100,73,40,30.59,30.33,20,4,20,0.00
2013-9-18,72.0,55.1,41.0,58.9,45.0,36.6,100,75,32,30.53,30.23,12,2,16,0.00
2013-9-19,76.0,58.0,42.0,60.0,48.4,42.0,100,77,35,30.39,30.19,12,2,13,0.00
2013-9-20,80.0,71.5,50.0,60.2,53.0,48.9,100,55,39,30.41,30.21,11,3,11,0.00
2013-9-21,61.0,59.4,56.0,59.6,58.4,56.0,100,96,94,30.24,30.08,11,6,11,0.00
2013-9-22,66.0,61.5,61.0,63.9,60.3,59.3,97,96,93,30.07,29.96,10,6,10,0.01
2013-9-23,55.0,53.7,51.0,42.9,42.2,40.8,68,65,63,30.06,30.02,14,9,14,0.87
2013-9-24,53.0,50.3,48.0,45.4,42.3,40.4,87,74,70,30.04,29.98,15,6,15,0.04
2013-9-25,59.0,53.8,49.0,48.9,47.5,45.0,92,80,61,30.14,30.00,11,4,11,0.00
2013-9-26,61.0,56.2,49.0,49.8,48.3,46.8,92,76,64,30.28,30.12,12,6,12,0.00
2013-9-27,72.0,69.0,56.0,52.8,50.1,48.4,88,52,45,30.50,30.41,14,4,14,0.00
2013-9-28,79.0,67.4,54.0,60.4,50.9,45.7,98,59,32,30.65,30.49,10,3,10,0.00
2013-9-29,72.0,64.8,57.0,54.8,49.8,47.0,71,59,47,30.53,30.36,5,2,5,0.00
2013-9-30,72.0,66.4,51.0,49.9,46.7,41.6,96,51,39,30.36,30.28,7,3,7,0.00
2013-10-1,70.0,61.5,53.0,50.5,50.0,49.5,88,69,50,30.16,30.14,7,4,7,0.00
2013-10-2,77.0,76.2,74.0,55.7,54.7,53.0,49,47,45,30.06,30.03,14,7,14,0.00
2013-10-3,73.0,61.6,48.0,48.2,44.9,41.1,93,60,34,30.30,30.18,19,5,19,0.00
2013-10-4,70.0,55.5,44.0,56.7,45.7,39.6,100,74,36,30.34,30.14,19,2,19,0.00
2013-10-5,67.0,54.8,44.0,49.3,43.9,35.0,97,70,34,30.42,30.25,12,2,12,0.00
2013-10-6,64.0,53.8,41.0,47.7,37.0,30.4,99,56,32,30.54,30.32,15,5,15,0.08
2013-10-7,65.0,58.8,47.0,65.0,58.6,46.2,100,100,97,30.40,30.04,21,8,21,0.20
2013-10-8,64.0,57.2,39.0,64.0,40.8,35.3,100,56,41,30.45,30.04,24,8,24,0.05
2013-10-9,66.0,51.1,35.0,47.9,39.8,35.0,100,71,36,30.72,30.38,13,3,13,0.00
2013-10-10,64.0,50.2,36.0,51.9,43.8,36.0,100,82,45,30.56,30.30,15,3,16,0.00
2013-10-11,76.0,56.0,42.0,57.2,48.2,42.0,100,80,34,30.46,30.20,12,2,12,0.00
2013-10-12,61.0,52.4,41.0,52.9,46.2,39.9,98,81,55,30.63,30.34,12,3,12,0.00
2013-10-13,61.0,47.9,39.0,51.5,41.7,38.2,100,82,49,30.73,30.39,13,3,13,0.00
2013-10-14,61.0,48.8,34.0,54.7,43.8,34.0,100,85,57,30.60,30.31,17,3,17,0.02
2013-10-15,68.0,55.2,49.0,57.6,50.6,47.7,100,87,50,30.56,30.34,12,2,12,0.00
2013-10-16,58.0,54.5,50.0,56.0,53.5,50.0,100,97,84,30.41,30.02,15,4,15,0.04
2013-10-17,62.0,55.7,52.0,57.1,54.7,52.0,100,97,84,30.05,29.90,12,4,12,0.00
2013-10-18,63.0,53.3,50.0,56.1,51.7,50.0,100,95,64,29.90,29.71,20,4,20,0.27
2013-10-19,65.0,59.6,48.0,50.7,41.1,37.1,100,52,40,30.15,30.03,17,5,17,0.00
2013-10-20,62.0,60.0,53.0,54.4,40.1,26.7,97,50,28,29.98,29.81,23,10,23,0.00
2013-10-21,61.0,54.7,44.0,38.5,32.7,28.7,81,44,33,30.26,30.16,19,6,19,0.00
2013-10-22,58.0,57.1,56.0,55.6,53.5,51.5,96,88,81,30.10,29.94,22,10,22,0.00
2013-10-23,56.0,51.5,43.0,47.9,34.6,28.7,96,54,37,29.95,29.63,15,3,15,0.03
2013-10-24,49.0,44.7,32.0,40.0,26.7,21.2,97,52,34,29.84,29.57,22,7,22,0.00
2013-10-25,52.0,46.3,38.0,34.9,30.7,26.9,85,55,40,30.09,29.98,17,7,17,0.00
2013-10-26,49.0,45.4,30.0,35.6,27.0,23.3,94,50,39,30.25,29.58,15,6,15,0.00
2013-10-27,56.0,50.6,43.0,44.3,40.1,29.2,91,68,49,29.99,29.94,13,5,13,0.10
2013-10-28,55.0,48.9,33.0,36.8,32.8,25.1,92,54,44,30.31,29.95,19,6,19,0.03
2013-10-29,47.0,43.2,27.0,27.0,19.2,15.5,100,40,28,30.54,30.45,12,7,12,0.00
2013-10-30,59.0,45.1,37.0,36.5,23.1,15.5,81,44,27,30.41,30.22,15,4,15,28.69
2013-10-31,51.0,43.5,0.0,48.2,33.7,-78.6,99,80,1,30.34,30.08,8,4,8,0.00
2013-11-1,64.0,61.5,59.0,61.9,59.2,54.8,100,93,86,29.62,29.27,25,11,25,1.12
2013-11-2,65.0,56.7,39.0,51.6,46.7,36.6,100,72,44,29.88,28.03,13,4,13,0.05
2013-11-3,44.0,37.4,32.0,30.5,18.0,12.8,77,46,30,30.28,28.39,22,8,23,0.06
2013-11-4,42.0,32.6,23.0,24.5,18.8,14.5,100,60,35,30.74,28.78,21,5,21,0.00
2013-11-5,47.0,41.4,23.0,35.0,31.3,23.0,100,68,50,30.83,30.32,15,4,17,0.00
2013-11-6,53.0,47.2,30.0,49.2,42.9,30.0,100,86,72,30.53,29.69,19,6,19,0.00
2013-11-7,59.0,55.1,45.0,57.0,52.7,37.9,100,92,77,30.07,29.66,20,6,20,0.18
2013-11-8,45.0,39.4,33.0,28.9,24.9,22.5,73,56,44,29.91,29.02,19,5,19,0.00
2013-11-9,43.0,36.3,25.0,26.6,21.8,16.1,94,57,36,30.17,29.32,24,5,24,0.00
2013-11-10,48.0,42.4,38.0,46.2,41.2,37.2,100,95,89,29.88,29.10,13,2,13,0.25
2013-11-11,45.0,39.6,35.0,33.6,30.9,26.6,91,72,51,30.07,29.27,25,4,25,0.01
2013-11-12,44.0,32.7,25.0,36.1,20.9,13.6,93,62,52,30.04,29.12,23,5,23,0.88
2013-11-13,35.0,27.6,23.0,17.9,13.5,9.5,71,56,36,30.18,30.01,22,6,23,0.00
2013-11-14,47.0,34.5,24.0,29.2,23.7,14.5,100,67,43,30.13,29.96,19,2,19,0.00
2013-11-15,52.0,34.7,24.0,44.8,28.7,23.4,100,83,35,30.29,30.03,13,2,13,0.00
2013-11-16,53.0,35.3,27.0,36.8,31.3,27.0,100,88,53,30.46,30.18,12,2,12,0.00
2013-11-17,51.0,42.7,28.0,50.0,40.4,28.0,100,92,74,30.50,30.16,15,4,15,0.03
2013-11-18,60.0,51.1,37.0,57.0,50.3,36.0,100,97,79,30.17,29.36,32,6,32,0.96
2013-11-19,39.0,35.3,30.0,38.0,23.4,15.6,100,65,41,29.95,29.38,33,8,33,0.01
2013-11-20,38.0,31.1,22.0,16.8,9.2,1.6,74,41,22,30.36,29.92,33,6,33,0.00
2013-11-21,52.0,31.2,17.0,29.0,19.3,6.4,100,71,17,30.46,30.10,14,1,14,0.00
2013-11-22,42.0,32.3,23.0,35.3,26.9,16.7,100,83,37,30.12,29.58,13,1,13,0.00
2013-11-23,39.0,33.9,26.0,36.0,22.1,11.2,99,65,34,29.58,29.35,37,7,38,0.15
2013-11-24,27.0,21.4,19.0,17.2,7.3,2.9,66,54,42,29.61,29.31,39,12,39,0.09
2013-11-25,28.0,20.0,16.0,12.4,3.3,-3.5,80,49,28,30.02,29.58,32,8,34,0.00
2013-11-26,34.0,28.8,21.0,32.0,24.9,11.8,100,86,67,30.12,29.93,13,2,13,0.02
2013-11-27,56.0,48.3,32.0,56.0,48.2,31.8,100,100,92,30.00,29.06,40,9,40,3.46
2013-11-28,41.0,29.5,18.0,38.9,19.7,5.6,100,68,42,30.05,29.11,32,8,32,0.07
2013-11-29,25.0,18.5,13.0,13.6,9.7,4.3,97,70,44,30.38,30.02,20,4,20,0.00
2013-11-30,23.0,15.9,8.0,21.5,14.6,8.0,100,95,89,30.45,30.13,7,2,8,0.00
2013-12-1,33.0,30.9,23.0,31.7,28.3,21.5,97,90,81,30.18,30.15,15,5,15,0.00
2013-12-2,44.0,39.6,36.0,42.7,39.0,36.0,100,98,94,29.88,29.74,16,3,16,0.48
2013-12-3,39.0,37.2,35.0,39.0,36.8,31.9,100,98,90,29.75,29.59,19,4,20,0.02
2013-12-4,43.0,36.8,27.0,31.9,28.7,25.8,95,73,57,29.93,29.60,23,7,23,0.00
2013-12-5,48.0,40.0,23.0,48.0,38.5,23.0,100,95,86,30.07,29.81,11,5,11,0.04
2013-12-6,49.0,40.7,36.0,49.0,37.7,29.2,100,89,76,29.89,29.73,14,4,14,0.18
2013-12-7,36.0,31.2,23.0,31.2,16.9,8.0,99,57,36,30.07,29.83,22,6,23,0.00
2013-12-8,24.0,20.4,14.0,15.1,8.8,3.3,99,62,42,30.29,30.03,28,5,28,0.00
2013-12-9,32.0,22.4,19.0,32.0,16.7,2.5,100,81,46,30.27,29.56,10,4,15,0.00
2013-12-10,33.0,26.2,19.0,32.7,23.3,11.4,100,89,66,29.61,29.45,17,3,19,0.00
2013-12-11,29.0,18.9,8.0,19.3,13.9,8.0,100,83,48,29.82,29.50,21,3,24,0.01
2013-12-12,14.0,9.6,5.0,13.0,3.0,-6.3,100,77,41,29.87,29.57,27,4,27,0.00
2013-12-13,22.0,12.7,2.0,11.7,2.4,-7.4,100,65,36,29.91,29.45,30,7,30,0.05
2013-12-14,11.0,3.7,-4.0,-0.5,-5.4,-8.7,91,66,44,30.25,29.86,20,4,21,0.00
2013-12-15,18.0,11.9,6.0,18.0,11.3,-3.9,100,98,60,30.05,28.99,29,6,31,0.00
2013-12-16,21.0,10.6,0.0,16.1,4.1,-4.8,100,78,41,29.72,29.22,30,5,31,0.00
2013-12-17,16.0,4.7,-11.0,11.0,0.2,-11.0,100,83,51,29.93,29.60,15,3,16,0.00
2013-12-18,22.0,13.2,0.0,18.2,12.8,0.0,100,98,83,29.66,29.41,20,4,22,0.00
2013-12-19,32.0,19.5,0.0,31.0,18.8,-1.0,100,97,81,29.78,29.44,12,1,12,0.00
2013-12-20,33.0,26.3,15.0,33.0,26.2,15.0,100,100,95,29.87,29.68,11,2,12,0.00
2013-12-21,33.0,27.9,19.0,33.0,27.9,17.0,100,100,99,29.73,29.60,16,3,16,0.11
2013-12-22,31.0,29.0,23.0,31.0,29.0,22.0,100,100,100,29.83,29.62,16,1,16,0.00
2013-12-23,32.0,28.9,23.0,32.0,28.9,21.0,100,100,100,29.85,29.70,0,0,0,0.00
2013-12-24,31.0,20.4,8.0,31.0,20.2,8.0,100,99,91,29.83,29.67,0,0,0,0.00
2013-12-25,18.0,8.2,-1.0,14.8,7.7,-1.0,100,98,86,30.12,29.67,0,0,0,0.00
2013-12-26,25.0,14.2,-1.0,25.0,14.2,-1.0,100,100,100,30.07,29.73,0,0,0,0.00
2013-12-27,30.0,17.7,7.0,26.6,17.3,6.0,100,98,84,29.89,29.69,0,0,0,0.01
2013-12-28,34.0,21.7,4.0,32.2,21.6,4.0,100,100,93,29.78,29.64,12,1,12,0.07
2013-12-29,35.0,29.7,22.0,34.0,29.7,22.0,100,100,100,29.79,29.22,19,2,19,0.54
2013-12-30,28.0,16.4,1.0,25.5,15.4,0.6,100,96,77,29.70,29.12,22,6,22,0.02
2013-12-31,11.0,1.3,-6.0,5.9,0.2,-7.0,100,96,72,29.74,29.50,17,2,17,0.02
2014-1-1,19.0,2.1,-13.0,13.6,0.6,-14.0,100,94,70,29.93,29.49,20,3,21,0.00
2014-1-2,-1.0,-6.9,-10.0,-2.0,-7.5,-11.0,100,97,87,29.93,29.36,23,7,25,0.00